Location: Grust
(42.8833°N, 0.0333°W)
Time: 14:19:54
(UTC+00:00)

CZ-2C R/B - Pass Details

Date: 25 October 2020
Orbit: 703 x 909 km, 98.1° (Epoch: 24 November)

Event Time Altitude Azimuth Distance (km) Brightness Sun altitude
Rises 17:34:58 0° 131° (SE) 3,527 6.1 -6.8°
Reaches altitude 10° 17:37:44 10° 119° (ESE) 2,586 5.3 -7.3°
Maximum altitude 17:42:27 27° 65° (ENE) 1,669 4.2 -8.1°
Drops below altitude 10° 17:47:06 10° 10° (N) 2,543 5.5 -9.0°
Sets 17:49:48 0° 359° (N) 3,459 6.3 -9.5°
